Dayton, OH

6:06 PM EDT on August 16, 2017 (GMT -0400)
Cox-Dayton International

Weather History for KDAY - October, 2012

Change the Weather History Date:

Monday, October 15, 2012

  Actual Average Record
Temperature  
Mean Temperature 49 °F 54 °F  
Max Temperature 57 °F 64 °F 91 °F (1899)
Min Temperature 40 °F 44 °F 28 °F (1939)
Degree Days  
Heating Degree Days 16 11  
Month to date heating degree days 186 138  
Since 1 July heating degree days 296 228  
Cooling Degree Days 0 0  
Month to date cooling degree days 1 10  
Year to date cooling degree days 1256 891  
Growing Degree Days 1 (Base 50)    
Moisture  
Dew Point 45 °F    
Average Humidity 75    
Maximum Humidity 89    
Minimum Humidity 61    
Precipitation  
Precipitation T in 0.10 in 1.16 in (1914)
Month to date precipitation 2.17 1.46  
Year to date precipitation 26.39 33.07  
Snow  
Snow 0.00 in 0.00 in - ()
Month to date snowfall 0.0 0.0  
Since 1 July snowfall 0.0 0.0  
Since 1 September snowfall 0.0 0.0  
Snow Depth 0.00 in    
Sea Level Pressure  
Sea Level Pressure 29.87 in    
Wind  
Wind Speed 11 mph (WNW)    
Max Wind Speed 24 mph    
Max Gust Speed 32 mph    
Visibility 10 miles    
Events Rain    
T = Trace of Precipitation, MM = Missing Value Source: NWS Daily Summary

Daily Weather History Graph

Daily Weather History Graph

Search for Another Location

Airport or City:

Trip Planner

Search our weather history database for the weather conditions in past years. The results will help you decide how hot, cold, wet, or windy it might be!

Date:

Astronomy

Oct. 15, 2012 Rise Set
Actual Time 7:47 AM EDT 6:56 PM EDT
Civil Twilight 7:20 AM EDT 7:23 PM EDT
Nautical Twilight 6:49 AM EDT 7:55 PM EDT
Astronomical Twilight 6:17 AM EDT 8:26 PM EDT
Moon 7:57 AM EDT (10/15) 6:55 PM EDT (10/15)
Length of Visible Light 12h 03m
Length of Day
11h 08m
New Moon, 0% of the Moon is Illuminated
Oct 15
New Moon
Oct 21
First Quarter
Oct 29
Full
Nov 6
Last Quarter
Nov 13
New

Hourly Weather History & Observations

Time (EDT) Temp. Windchill Dew Point Humidity Pressure Visibility Wind Dir Wind Speed Gust Speed Precip Events Conditions
12:22 AM 55.4 °F - 51.8 °F 88% 29.78 in 10.0 mi West 18.4 mph 32.2 mph N/A   Overcast
12:56 AM 55.4 °F - 51.8 °F 88% 29.79 in 10.0 mi West 16.1 mph - N/A   Overcast
1:56 AM 54.0 °F - 48.9 °F 83% 29.80 in 10.0 mi West 16.1 mph - N/A   Overcast
2:24 AM 53.6 °F - 48.2 °F 82% 29.82 in 10.0 mi West 12.7 mph - N/A   Overcast
2:56 AM 54.0 °F - 48.9 °F 83% 29.81 in 10.0 mi West 12.7 mph - N/A   Overcast
3:23 AM 53.6 °F - 48.2 °F 82% 29.81 in 10.0 mi West 13.8 mph - N/A   Overcast
3:56 AM 53.1 °F - 48.0 °F 83% 29.81 in 10.0 mi West 15.0 mph - N/A   Overcast
4:56 AM 52.0 °F - 46.0 °F 80% 29.80 in 10.0 mi West 13.8 mph - N/A   Overcast
5:52 AM 51.8 °F - 46.4 °F 82% 29.81 in 10.0 mi West 6.9 mph - N/A   Overcast
5:56 AM 51.1 °F - 46.9 °F 86% 29.81 in 10.0 mi West 6.9 mph - N/A   Overcast
6:21 AM 51.8 °F - 48.2 °F 88% 29.82 in 10.0 mi WSW 5.8 mph - N/A   Overcast
6:56 AM 51.1 °F - 48.0 °F 89% 29.81 in 10.0 mi SW 6.9 mph - N/A   Overcast
7:15 AM 51.8 °F - 48.2 °F 88% 29.82 in 10.0 mi SW 6.9 mph - N/A   Overcast
7:56 AM 51.8 °F - 48.2 °F 88% 29.83 in 10.0 mi WSW 17.3 mph 23.0 mph N/A   Overcast
8:22 AM 51.8 °F - 46.4 °F 82% 29.83 in 10.0 mi West 17.3 mph - N/A   Overcast
8:56 AM 51.1 °F - 46.9 °F 86% 29.84 in 10.0 mi West 13.8 mph - N/A   Mostly Cloudy
9:17 AM 51.8 °F - 46.4 °F 82% 29.84 in 10.0 mi West 15.0 mph - N/A   Overcast
9:49 AM 50.0 °F - 46.4 °F 87% 29.86 in 8.0 mi West 20.7 mph 29.9 mph N/A   Overcast
9:56 AM 48.9 °F - 46.0 °F 90% 29.86 in 8.0 mi WNW 17.3 mph - 0.00 in Rain Light Rain
10:06 AM 48.2 °F - 44.6 °F 87% 29.86 in 10.0 mi West 10.4 mph - 0.00 in   Overcast
10:21 AM 50.0 °F - 44.6 °F 82% 29.87 in 10.0 mi WNW 15.0 mph - 0.00 in   Overcast
10:39 AM 51.8 °F - 44.6 °F 76% 29.87 in 10.0 mi WNW 12.7 mph - 0.00 in   Overcast
10:56 AM 51.1 °F - 45.0 °F 80% 29.88 in 10.0 mi West 16.1 mph 20.7 mph 0.00 in   Overcast
11:56 AM 50.0 °F - 44.1 °F 80% 29.90 in 10.0 mi West 16.1 mph 21.9 mph N/A   Overcast
12:56 PM 51.1 °F - 45.0 °F 80% 29.91 in 10.0 mi West 16.1 mph - N/A   Overcast
1:56 PM 51.8 °F - 44.6 °F 76% 29.91 in 10.0 mi WNW 12.7 mph - N/A   Overcast
2:36 PM 53.6 °F - 42.8 °F 67% 29.90 in 10.0 mi WNW 15.0 mph - N/A   Mostly Cloudy
2:56 PM 55.9 °F - 43.0 °F 62% 29.90 in 10.0 mi WNW 13.8 mph - N/A   Mostly Cloudy
3:56 PM 54.0 °F - 41.0 °F 62% 29.93 in 10.0 mi WNW 16.1 mph 25.3 mph N/A   Mostly Cloudy
4:56 PM 54.0 °F - 41.0 °F 62% 29.92 in 10.0 mi WNW 11.5 mph - N/A   Mostly Cloudy
5:56 PM 54.0 °F - 41.0 °F 62% 29.93 in 10.0 mi NW 11.5 mph - N/A   Mostly Cloudy
6:56 PM 51.8 °F - 39.2 °F 62% 29.95 in 10.0 mi NW 8.1 mph - N/A   Scattered Clouds
7:56 PM 50.0 °F - 39.0 °F 66% 29.96 in 10.0 mi Calm Calm - N/A   Partly Cloudy
8:56 PM 45.0 °F 43.5 °F 37.9 °F 76% 29.97 in 10.0 mi West 3.5 mph - N/A   Clear
9:56 PM 46.0 °F 43.1 °F 39.9 °F 79% 29.99 in 10.0 mi NNW 5.8 mph - N/A   Clear
10:56 PM 46.0 °F 44.8 °F 39.9 °F 79% 29.99 in 10.0 mi NNW 3.5 mph - N/A   Clear
11:56 PM 43.0 °F - 39.0 °F 86% 29.99 in 9.0 mi Calm Calm - N/A   Clear